{"data":{"norad_id":69033,"intl_designator":"2026-101J","name":"STARLINK-37591","alt_names":[],"object_type":"PAYLOAD","status":"ACTIVE","operator":null,"country":"US","launch_date":"2026-05-06","launch_site_code":"AFWTR","launch_vehicle":null,"mission":null,"orbit_class":"UNKNOWN","rcs_meters":null,"size_class":null,"mass_kg":null,"dimensions":null,"purposes":["comms"],"wikipedia_slug":null,"has_3d_model":false,"image_url":null,"decayed_at":null,"tle_current":{"epoch":"2026-09-19T00:52:15.475872Z","epoch_age_seconds":145779,"freshness":"FRESH","line1":"1 69033U 26101J   26262.03629023  .00022290  00000+0  69073-3 0  9996","line2":"2 69033  97.2852 115.5266 0001552 111.4330 248.7079 15.33443839 20954","mean_motion":15.33443839,"eccentricity":0.0001552,"inclination_deg":97.2852,"raan_deg":115.5266,"arg_perigee_deg":111.433,"mean_anomaly_deg":248.7079,"bstar":0.00069073,"rev_number":2095,"period_min":93.906275755039,"perigee_km":464.48448910029,"apogee_km":466.60876849867,"semimajor_km":6843.6836287995,"source":"CELESTRAK","updated_at":"2026-09-20T09:00:44.059516Z"}}}